Погода в Якутске

Хотите узнать прогноз погоды в Якутске? Тогда Вам сюда: Погода в Якутске

Поиск расширенной информации на нашем сайте:

Полезная информация:

Новости сайта



02.01.2020
Опубликован Долгосрочный прогноз погоды по городам России и ближнего зарубежья на январь 2020 года.
Карты: Прогноз на январь и февраль 2020 года, Сравнение прогнозируемой аномалии приземной температуры воздуха на январь 2020 года по разным моделям.




Погода в Якутске - сегодня

Время (UTC), дата Ветер
(°,м/с) 
Видим.   Явления Облачность Т
(°С)
Тd
(°С)
f(%) Тe
(°С)
Pmin
(гПа)
dP
(гПа)
Po
(мм)
O2
(г/м3)
Тmin Tmax R s Состояние
почвы
00 30.11.20 240 (ЮЗ) 20000 м  {снег}  10/0 средняя, верхняя 
[Ac trans|Ci fib]
-33.1 -35.5 79 -34  1027.3  0.5  759  350  -33.1    0.0  21  равномерный
сухой снег
100% 
03 30.11.20 тихо ()   20000 м  слаб. снег  8/0 средняя, верхняя 
[Ac trans|Ci fib]
-32.4 -34.8 79 -32  1026.7  -0.5  759  349  -33.5         
06 30.11.20 тихо ()   20000 м  слаб. снег  10/0 средняя, верхняя 
[Ac trans|Ci fib]
-31.8 -34.1 80 -32  1026.8  0.2  759  348           
09 30.11.20 230 (ЮЗ) 20000 м  слаб. снег  10/4 800 м средняя 
[Sc|Ac trans]
-29.7 -32 80 -30  1026.5  -0.2  759  345           
12 30.11.20 250 (З) 20000 м  слаб. снег  10/6 800 м средняя 
[Sc|Ac trans]
-28.1 -30.4 81 -29  1025.9  -0.5  759  343    -28.1  0.4     
15 30.11.20 тихо ()   20000 м  слаб. снег  10/4 800 м средняя, верхняя 
[Sc|Ac trans|Ci fib]
-26.7 -28.9 82 -27  1024.8  -1  758  340           
18 30.11.20 тихо ()   20000 м  слаб. снег  10/3 600 м средняя, верхняя 
[Sc|Ac trans|Ci fib]
-26.1 -28.4 81 -26  1024  -0.8  757  339           
21 30.11.20 тихо ()   20000 м  слаб. снег  10/3 600 м средняя, верхняя 
[Sc|Ac trans|Ci fib]
-25.6 -27.8 82 -26  1023.6  -0.3  757  338           
00 01.12.20 тихо ()   20000 м  слаб. снег  10/0 средняя, верхняя 
[Ac trans|Ci fib]
-25.5 -27.7 82 -26  1023.1  -0.5  757  338  -28.1    0.8  21  равномерный
сухой снег
100% 
03 01.12.20 140 (ЮВ) 10 км  слаб. снег  10/0 средняя, верхняя 
[Ac trans|Ci fib]
-23.5 -25.7 82 -24  1022.1  -0.9  756  335           
06 01.12.20 350 (С) 10 км  слаб. снег  10/0 средняя, верхняя 
[Ac trans|Ci fib]
-23.7 -25.8 83 -24  1021.3  -0.8  755  335           
09 01.12.20 тихо ()   20000 м  слаб. снег  10/0 средняя, верхняя 
[Ac trans|Ci fib]
-25.1 -27.3 82 -25  1020.4  -1  755  337           
12 01.12.20 тихо ()   10 км  слаб. снег  10/0 средняя 
[Ac und]
-23.7 -25.9 82 -24  1018.3  -2  753  334    -23  0.4     
15 01.12.20 тихо ()   20000 м  слаб. снег  10/0 средняя 
[Ac und]
-22.3 -24.4 83 -22  1015.6  -2.5  751  331           
18 01.12.20 тихо ()   10 км  слаб. снег  10/0 средняя 
[Ac As]
-21 -23 84 -21  1013.2  -2.4  750  329           
21 01.12.20 350 (С) 4000 м  слаб. снег  10/0 средняя 
[Ac As]
-22.1 -24.1 84 -22  1011.8  -1.4  749  330           
00 02.12.20 020 (С) 10 км  слаб. снег  10/0 средняя 
[Ac As]
-22.5 -24.6 83 -25  1011.6  -0.2  748  330  -24    23  равномерный
сухой снег
100% 
03 02.12.20 010 (С) 10 км  слаб. снег  10/0 средняя 
[Ac As]
-23.2 -25.5 81 -24  1011.9  0.3  749  331           
06 02.12.20 тихо ()   20000 м  слаб. снег  10/0 средняя, верхняя 
[Ac trans|Cs]
-24.9 -27 83 -25  1012.2  0.2  749  334           
09 02.12.20 110 (В) 20000 м  слаб. снег  10/0 средняя, верхняя 
[Ac trans|Ci fib]
-25.5 -27.7 82 -29  1011.7  -0.6  748  334           
12 02.12.20 тихо ()   10 км  слаб. снег  10/0 средняя 
[Ac As]
-24.5 -26.7 82 -25  1009.4  -2.2  747  332    -22.5  0.7     
15 02.12.20 тихо ()   10 км  слаб. снег  10/0 средняя 
[Ac As]
-23.4 -25.6 82 -23  1006.9  -2.4  745  330           
18 02.12.20 тихо ()   10 км  слаб. снег  10/0 средняя 
[Ac As]
-22.8 -25 82 -23  1005.7  -1.2  744  329           
21 02.12.20 360 (С) 10 км  слаб. снег  10/0 средняя 
[Ac As]
-23.5 -25.8 81 -24  1005.9  0.2  744  330           
00 03.12.20 тихо ()   10 км  слаб. снег  10/0 средняя 
[Ac As]
-22.7 -25 81 -23  1005.6  -0.2  744  329  -24.5    24  равномерный
сухой снег
100% 
Время (UTC), дата Ветер
(°,м/с) 
Видим.   Явления Облачность Т
(°С)
Тd
(°С)
f(%) Тe
(°С)
Pmin
(гПа)
dP
(гПа)
Po
(мм)
O2
(г/м3)
Тmin Tmax R s Состояние
почвы

Для получения пояснительной информации подведите курсор к названию столбца.

ПОГОДА в Якутске - архив

Всё, что Вы хотите узнать о погоде в Якутске - удобно и подробно!

Выберите нужную дату (начиная с 1 января 2019* года) и нажмите кнопку "Найти".
Будут отображены архивные сводки погоды по пункту Якутск, начиная с указанной даты.


Отображать данные в формате CSV (для использования в таблицах Excel)


Внимание! Наш архив погоды предназначен исключительно для личного некоммерческого использования в познавательных целях. Если Вам необходимы официальные справки о состоянии погоды (для производственных, юридических, коммерческих и т.п. целей), обращайтесь в органы Росгидромета.

*Примечание: данная дата относится к архиву по метеостанциям СССР (Россия, СНГ, Балтия).
Архив по метеостанциям Зарубежной Европы и Азии (кроме Китая) хранится 10 дней, по другим регионам земного шара (Китай, Африка, Америка, Австралия, Океания) - 1 день.

Якутск - район местоположения метеостанции


Название, широта, долгота, высота метеостанции:
Якутск 62°ш. 129.7°д. 101 м над ур. моря [Российская Федерация]

Дополнительная информация

В oтличие oт бoльшинства пoгoдных сайтoв мы публикуем пoдрoбную метеoинфoрмацию в детальнoм прoфессиoнальнoм фoрмате.

Характеристики температуры и влажнoсти вoздуха измеряются на высoте 2 м в тени вдали oт зданий и деревьев.
Скoрoсть ветра измеряется на высoте 10 м (на урoвне рoста челoвека скoрoсть ветра ниже в 1.5-2 раза). Если метеoстанция нахoдится в гoрoде или в лесу, тo скoрoсть ветра занижена на 2-4 м/с пo сравнению с oткрытым местoм. Скoрoсть ветра над акватoриями крупных рек и oзёр, а также на вершинах хoлмoв на 2-5 м/с выше, чем в oбычных услoвиях.
Атмoсфернoе давление в разных тoчках местнoсти мoжет значительнo oтличаться oт давления на метеoстанции, в зависимoсти oт услoвий рельефа (при пoдъёме на 10 м давление пoнижается примернo на 1 мм рт.ст.).